Weather History for Richmond, KY

Change the Weather History Date:

Wednesday, August 7, 2013

  Actual Average (KLOZ) Record (KLOZ)
Temperature  
Mean Temperature 76 °F 76 °F  
Max Temperature 84 °F 86 °F 95 °F (2006)
Min Temperature 69 °F 66 °F 49 °F (2004)
Degree Days  
Heating Degree Days 0 0  
Month to date heating degree days 0  
Since 1 June heating degree days 9  
Since 1 July heating degree days 0  
Cooling Degree Days 12 11  
Month to date cooling degree days 77  
Growing Degree Days 26 (Base 50)    
Moisture  
Dew Point 70 °F    
Average Humidity 82    
Maximum Humidity 94    
Minimum Humidity 66    
Precipitation  
Precipitation 0.00 in 0.14 in 0.77 in (2003)
Month to date precipitation 0.89  
Sea Level Pressure  
Sea Level Pressure 29.97 in    
Wind  
Wind Speed 4 mph (South)    
Max Wind Speed 12 mph    
Max Gust Speed 20 mph    
Visibility 8 miles    
Events      
T = Trace of Precipitation, MM = Missing Value Source: NWS Daily Summary

Daily Weather History Graph

Daily Weather History Graph

Search for Another Location

Airport:

Trip Planner

Search our weather history database for the weather conditions in past years. The results will help you decide how hot, cold, wet, or windy it might be!

Date:

Astronomy

Aug. 07, 2013 Rise Set
Actual Time 6:46 AM EDT 8:39 PM EDT
Civil Twilight 6:17 AM EDT 9:07 PM EDT
Nautical Twilight 5:43 AM EDT 9:42 PM EDT
Astronomical Twilight 5:06 AM EDT 10:18 PM EDT
Moon 7:32 AM EDT (8/7) 8:48 PM EDT (8/7)
Length of Visible Light 14h 49m
Length of Day
13h 52m
New Moon, 1% of the Moon is Illuminated
Aug 7
New Moon
Aug 14
First Quarter
Aug 20
Full
Aug 28
Last Quarter
Sep 5
New

Hourly Weather History & Observations

Time (EDT) Temp. Heat Index Dew Point Humidity Pressure Visibility Wind Dir Wind Speed Gust Speed Precip Events Conditions
12:15 AM 71.6 °F - 68.0 °F 88% 29.97 in 7.0 mi Calm Calm - N/A   Clear
12:35 AM 71.6 °F - 69.8 °F 94% 29.98 in 7.0 mi Calm Calm - N/A   Clear
12:55 AM 73.4 °F - 69.8 °F 88% 29.98 in 7.0 mi South 4.6 mph - N/A   Scattered Clouds
1:15 AM 73.4 °F - 69.8 °F 88% 29.97 in 10.0 mi South 3.5 mph - N/A   Scattered Clouds
1:35 AM 73.4 °F - 69.8 °F 88% 29.98 in 10.0 mi Calm Calm - N/A   Scattered Clouds
1:55 AM 73.4 °F - 69.8 °F 88% 29.98 in 10.0 mi SSW 3.5 mph - N/A   Mostly Cloudy
2:15 AM 73.4 °F - 69.8 °F 88% 29.98 in 10.0 mi SSW 4.6 mph - N/A   Overcast
2:35 AM 73.4 °F - 69.8 °F 88% 29.98 in 10.0 mi SSW 4.6 mph - N/A   Mostly Cloudy
2:55 AM 73.4 °F - 69.8 °F 88% 29.98 in 10.0 mi SSW 4.6 mph - N/A   Mostly Cloudy
3:15 AM 73.4 °F - 69.8 °F 88% 29.98 in 10.0 mi South 3.5 mph - N/A   Mostly Cloudy
3:35 AM 73.4 °F - 71.6 °F 94% 29.98 in 10.0 mi South 3.5 mph - N/A   Overcast
3:55 AM 73.4 °F - 69.8 °F 88% 29.97 in 10.0 mi SSW 3.5 mph - N/A   Mostly Cloudy
4:15 AM 73.4 °F - 69.8 °F 88% 29.97 in 10.0 mi South 3.5 mph - N/A   Overcast
4:35 AM 73.4 °F - 69.8 °F 88% 29.98 in 10.0 mi South 3.5 mph - N/A   Overcast
4:55 AM 73.4 °F - 69.8 °F 88% 29.97 in 10.0 mi Calm Calm - N/A   Overcast
5:15 AM 73.4 °F - 69.8 °F 88% 29.96 in 10.0 mi South 4.6 mph - N/A   Overcast
5:35 AM 73.4 °F - 69.8 °F 88% 29.96 in 5.0 mi Calm Calm - N/A   Overcast
5:55 AM 73.4 °F - 69.8 °F 88% 29.96 in 5.0 mi SSW 3.5 mph - N/A   Overcast
6:15 AM 73.4 °F - 69.8 °F 88% 29.97 in 4.0 mi Calm Calm - N/A   Overcast
6:35 AM 73.4 °F - 69.8 °F 88% 29.98 in 10.0 mi SW 4.6 mph - N/A   Overcast
6:55 AM 73.4 °F - 69.8 °F 88% 29.98 in 10.0 mi SSW 3.5 mph - N/A   Overcast
7:15 AM 73.4 °F - 69.8 °F 88% 29.98 in 7.0 mi SSW 4.6 mph - N/A   Overcast
7:35 AM 73.4 °F - 69.8 °F 88% 29.99 in 5.0 mi SSW 4.6 mph - N/A   Mostly Cloudy
7:55 AM 73.4 °F - 69.8 °F 88% 29.99 in 5.0 mi SSW 5.8 mph - N/A   Overcast
8:15 AM 73.4 °F - 71.6 °F 94% 29.99 in 5.0 mi SSW 5.8 mph - N/A   Overcast
8:35 AM 73.4 °F - 71.6 °F 94% 29.99 in 5.0 mi SSW 5.8 mph - N/A   Overcast
8:55 AM 73.4 °F - 71.6 °F 94% 30.00 in 5.0 mi South 8.1 mph - N/A   Overcast
9:15 AM 75.2 °F - 71.6 °F 89% 30.00 in 7.0 mi South 4.6 mph - N/A   Mostly Cloudy
9:35 AM 75.2 °F - 69.8 °F 83% 30.00 in 10.0 mi South 4.6 mph - N/A   Scattered Clouds
9:55 AM 75.2 °F - 69.8 °F 83% 29.99 in 10.0 mi South 8.1 mph - N/A   Mostly Cloudy
10:15 AM 75.2 °F - 68.0 °F 78% 30.00 in 10.0 mi South 8.1 mph - N/A   Scattered Clouds
10:35 AM 77.0 °F - 68.0 °F 74% 30.00 in 10.0 mi South 8.1 mph - N/A   Clear
10:55 AM 78.8 °F - 68.0 °F 69% 30.00 in 10.0 mi South 9.2 mph - N/A   Clear
11:15 AM 78.8 °F - 69.8 °F 74% 30.01 in 10.0 mi SW 8.1 mph - N/A   Clear
11:35 AM 80.6 °F 83.9 °F 69.8 °F 70% 30.01 in 10.0 mi SSW 8.1 mph - N/A   Scattered Clouds
11:55 AM 78.8 °F - 69.8 °F 74% 30.01 in 10.0 mi SSW 8.1 mph - N/A   Overcast
12:15 PM 78.8 °F - 69.8 °F 74% 30.00 in 10.0 mi SSW 6.9 mph - N/A   Overcast
12:35 PM 78.8 °F - 69.8 °F 74% 30.00 in 10.0 mi South 5.8 mph - N/A   Overcast
12:55 PM 78.8 °F - 71.6 °F 78% 29.99 in 7.0 mi South 8.1 mph - N/A   Overcast
1:15 PM 78.8 °F - 71.6 °F 78% 29.98 in 10.0 mi South 9.2 mph - N/A   Overcast
1:35 PM 78.8 °F - 71.6 °F 78% 29.98 in 10.0 mi South 10.4 mph - N/A   Overcast
1:55 PM 78.8 °F - 71.6 °F 78% 29.98 in 10.0 mi South 6.9 mph - N/A   Overcast
2:15 PM 78.8 °F - 71.6 °F 78% 29.98 in 10.0 mi SSW 5.8 mph - N/A   Overcast
2:35 PM 80.6 °F 84.6 °F 71.6 °F 74% 29.98 in 10.0 mi SSW 8.1 mph - N/A   Overcast
2:55 PM 82.4 °F 87.2 °F 71.6 °F 70% 29.97 in 10.0 mi South 9.2 mph - N/A   Overcast
3:15 PM 80.6 °F 83.9 °F 69.8 °F 70% 29.96 in 7.0 mi SSW 9.2 mph - N/A   Mostly Cloudy
3:35 PM 82.4 °F 87.2 °F 71.6 °F 70% 29.96 in 10.0 mi South 5.8 mph - N/A   Scattered Clouds
3:55 PM 80.6 °F 84.6 °F 71.6 °F 74% 29.96 in 10.0 mi SSW 6.9 mph - N/A   Mostly Cloudy
4:15 PM 80.6 °F 84.6 °F 71.6 °F 74% 29.96 in 10.0 mi SSW 11.5 mph 16.1 mph N/A   Overcast
4:35 PM 82.4 °F 87.2 °F 71.6 °F 70% 29.94 in 10.0 mi SSW 10.4 mph - N/A   Mostly Cloudy
4:55 PM 84.2 °F 89.6 °F 71.6 °F 66% 29.93 in 10.0 mi SW 10.4 mph - N/A   Scattered Clouds
5:15 PM 84.2 °F 89.6 °F 71.6 °F 66% 29.93 in 10.0 mi SW 8.1 mph - N/A   Scattered Clouds
5:35 PM 82.4 °F 87.2 °F 71.6 °F 70% 29.93 in 10.0 mi South 5.8 mph - N/A   Mostly Cloudy
5:55 PM 82.4 °F 88.2 °F 73.4 °F 74% 29.93 in 7.0 mi SE 5.8 mph - N/A   Overcast
6:15 PM 80.6 °F 84.6 °F 71.6 °F 74% 29.93 in 10.0 mi South 5.8 mph - N/A   Overcast
6:35 PM 80.6 °F 84.6 °F 71.6 °F 74% 29.93 in 10.0 mi South 5.8 mph - N/A   Mostly Cloudy
6:55 PM 80.6 °F 84.6 °F 71.6 °F 74% 29.93 in 10.0 mi South 5.8 mph - N/A   Scattered Clouds
7:15 PM 80.6 °F 84.6 °F 71.6 °F 74% 29.93 in 10.0 mi South 4.6 mph - N/A   Scattered Clouds
7:35 PM 80.6 °F 84.6 °F 71.6 °F 74% 29.92 in 10.0 mi Calm Calm - N/A   Clear
7:55 PM 80.6 °F 85.4 °F 73.4 °F 79% 29.92 in 10.0 mi South 4.6 mph - N/A   Clear
8:15 PM 78.8 °F - 73.4 °F 83% 29.92 in 7.0 mi South 4.6 mph - N/A   Clear
8:35 PM 78.8 °F - 73.4 °F 83% 29.91 in 10.0 mi SSE 4.6 mph - N/A   Clear
8:55 PM 78.8 °F - 71.6 °F 78% 29.94 in 10.0 mi South 6.9 mph - N/A   Mostly Cloudy
9:15 PM 78.8 °F - 71.6 °F 78% 29.93 in 10.0 mi South 5.8 mph - N/A   Mostly Cloudy
9:35 PM 75.2 °F - 71.6 °F 89% 29.95 in 1.2 mi NNE 4.6 mph 19.6 mph N/A   Overcast
9:55 PM 71.6 °F - 69.8 °F 94% 29.97 in 1.8 mi NNE 6.9 mph 17.3 mph N/A   Overcast
10:15 PM 71.6 °F - 69.8 °F 94% 29.98 in 1.5 mi NE 6.9 mph - N/A   Overcast
10:35 PM 71.6 °F - 68.0 °F 88% 29.99 in 4.0 mi SSE 3.5 mph - N/A   Overcast
10:55 PM 71.6 °F - 68.0 °F 88% 30.00 in 5.0 mi NE 3.5 mph - N/A   Overcast
11:15 PM 69.8 °F - 68.0 °F 94% 30.00 in 4.0 mi East 5.8 mph - N/A   Overcast
11:35 PM 71.6 °F - 68.0 °F 88% 30.00 in 10.0 mi East 6.9 mph - N/A   Overcast
11:55 PM 71.6 °F - 68.0 °F 88% 30.00 in 10.0 mi Calm Calm - N/A   Overcast